Location: Ravensburg
(47.7866°N, 9.6124°E)
Time: 02:36:12
(UTC+02:00)

Gurwin Techsat 1B - Pass Details

Date: 18 March 2026
Orbit: 809 x 812 km, 99.0° (Epoch: 14 April)

Event Time Altitude Azimuth Distance (km) Brightness Sun altitude
Rises 03:54:15 0° 34° (NE) 3,339 12.8 -25.7°
Reaches altitude 10° 03:58:32 10° 67° (ENE) 2,400 12.1 -25.1°
Maximum altitude 04:00:12 11° 86° (E) 2,297 11.8 -24.9°
Drops below altitude 10° 04:01:53 10° 105° (ESE) 2,394 11.6 -24.6°
Sets 04:06:07 0° 138° (SE) 3,318 12.0 -24.0°
